www.pogodaiklimat.ru
Время
(UTC), дата
19 6.08
20 6.08
21 6.08
22 6.08
23 6.08
00 7.08
01 7.08
02 7.08
03 7.08
04 7.08
05 7.08
06 7.08
07 7.08
08 7.08
09 7.08
10 7.08
11 7.08
12 7.08
13 7.08
14 7.08
15 7.08
16 7.08
17 7.08
18 7.08
19 7.08
20 7.08
21 7.08
22 7.08
23 7.08
00 8.08
01 8.08
02 8.08
03 8.08
04 8.08
05 8.08
06 8.08
07 8.08
08 8.08
09 8.08
10 8.08
11 8.08
12 8.08
13 8.08
14 8.08
15 8.08
16 8.08
17 8.08
18 8.08
19 8.08
20 8.08
21 8.08
22 8.08
23 8.08
00 9.08
01 9.08
02 9.08
03 9.08
04 9.08
05 9.08
06 9.08
07 9.08
08 9.08
09 9.08
10 9.08
11 9.08
12 9.08
13 9.08
14 9.08
15 9.08
16 9.08
17 9.08
18 9.08
19 9.08
20 9.08
21 9.08
22 9.08
23 9.08
00 10.08
01 10.08
02 10.08
03 10.08
04 10.08
05 10.08
06 10.08
07 10.08
08 10.08
09 10.08
10 10.08
11 10.08
12 10.08
13 10.08
14 10.08
15 10.08
16 10.08
17 10.08
18 10.08
19 10.08
20 10.08
21 10.08
22 10.08
23 10.08
00 11.08
01 11.08
02 11.08
03 11.08
04 11.08
05 11.08
06 11.08
07 11.08
08 11.08
09 11.08
10 11.08
11 11.08
12 11.08
13 11.08
14 11.08
15 11.08
16 11.08
17 11.08
18 11.08
19 11.08
20 11.08
21 11.08
22 11.08
23 11.08
00 12.08
01 12.08
02 12.08
03 12.08
04 12.08
05 12.08
06 12.08
07 12.08
08 12.08
09 12.08
10 12.08
11 12.08
12 12.08
13 12.08
14 12.08
15 12.08
16 12.08
17 12.08
18 12.08
19 12.08
20 12.08
21 12.08
22 12.08
23 12.08
00 13.08
01 13.08
02 13.08
03 13.08
04 13.08
05 13.08
06 13.08
07 13.08
08 13.08
09 13.08
10 13.08
11 13.08
12 13.08
13 13.08
14 13.08
15 13.08
16 13.08
17 13.08
18 13.08
19 13.08
Ветер
(напр.,м/с)
Видим. Явления Облачность Т
(С)
Тd
(С)
f
(%)
Тe
(С)
Тes
(С)
Комфортность P
(гПа)
Po
(гПа)
Тmin
(С)
Tmax
(С)
R
(мм)
R24
(мм)
S
(см)
ЮВ 1-2
{2}
70 км 1/0
[Ci sp]
+26.8 +11.4 38 +28 +28 жарко 1018.5 1007.1
В 2-3
{3}
70 км 1/0
[Ci sp]
+22.4 +11.3 49 +25 +25 комфорт 1019.2 1007.6
В 3 60 км 1/0
[Ci fib]
+20.4 +11.3 56 +23 +23 комфорт 1019.6 1007.9
В 2-3
{4}
60 км ясно +22.2 +11.1 49 +24 +24 комфорт 1019.7 1008.1
В 3-3
{3}
60 км ясно +18.9 +11.4 62 +20 +20 тепло 1019.9 1008.2
В 1 60 км ясно +18.5 +11.1 62 +20 +20 тепло 1020.0 1008.3
ЮВ 1-2
{2}
60 км ясно +17.2 +11.1 67 +18 +18 тепло 1020.1 1008.3
ЮВ 3-3
{3}
60 км ясно +16.2 +10.8 70 +16 +16 тепло 1020.2 1008.4
ЮВ 3-3
{3}
60 км ясно +15.9 +10.9 72 +15 +15 тепло 1020.2 1008.3
ЮВ 1-2
{3}
55 км ясно +15.4 +10.9 75 +16 +16 тепло 1020.5 1008.6
ЮВ 2-2
{2}
40 км ясно +15.0 +10.8 76 +15 +15 тепло 1021.0 1009.1
ЮВ 2 40 км ясно +18.8 +12.3 66 +20 +22 тепло 1021.0 1009.3 +14.4 +30.2
ЮВ 2-3
{3}
35 км ясно +22.9 +11.8 50 +25 +30 комфорт 1021.1 1009.5
В 2-3
{4}
35 км ясно +25.8 +10.9 39 +27 +34 жарко 1021.0 1009.5
ЮВ 2 30 км ясно +28.7 +11.3 34 +29 +40 жарко 1020.6 1009.2
ЮЗ 2-4
{4}
40 км ясно +31.1 +11.5 30 +31 +44 жарко 1020.3 1009.0
ЮВ 5-7
{7}
45 км ясно +31.7 +9.7 26 +31 +39 жарко 1019.8 1008.6
Ю 2 50 км ясно +32.7 +8.4 22 +31 +46 жарко 1019.3 1008.1
СВ 3-6
{6}
55 км ясно +33.6 +8.5 21 +32 +43 жарко 1018.9 1007.7
В 2-3
{7}
55 км ясно +34.9 +8.9 20 +33 +44 жарко 1018.4 1007.3
В 2-4
{7}
55 км ясно +34.3 +8.5 20 +33 +40 жарко 1018.0 1006.9
СВ 1-3
{7}
55 км ясно +34.0 +7.9 20 +32 +37 жарко 1017.8 1006.7
В 1-2
{4}
55 км ясно +34.1 +8.0 20 +32 +35 жарко 1017.5 1006.4
СВ 2 60 км ясно +33.4 +9.3 23 +32 +33 жарко 1017.5 1006.3 +18.9 +35.1
В 2-3
{3}
60 км ясно +28.2 +12.0 37 +29 +29 жарко 1017.7 1006.4
В 3-4
{4}
60 км ясно +26.6 +11.3 38 +28 +28 жарко 1018.2 1006.8
В 3-3
{4}
60 км ясно +24.9 +11.3 43 +26 +26 жарко 1018.5 1007.0
В 2-3
{4}
60 км ясно +26.2 +10.7 38 +27 +27 жарко 1018.5 1007.1
В 1-2
{3}
60 км ясно +21.5 +12.0 55 +24 +24 комфорт 1019.0 1007.4
В 1 60 км ясно +20.4 +12.2 59 +23 +23 комфорт 1019.2 1007.5
ЮВ 2-3
{3}
60 км ясно +19.6 +12.3 63 +22 +22 комфорт 1019.1 1007.4
ЮВ 3-3
{3}
50 км ясно +17.6 +12.4 72 +18 +18 тепло 1019.3 1007.5
ЮВ 3-3
{4}
50 км ясно +16.6 +12.1 75 +16 +16 тепло 1019.4 1007.6
ЮВ 3-3
{3}
50 км ясно +17.5 +12.2 71 +18 +18 тепло 1019.7 1007.9
ЮВ 2-3
{4}
50 км ясно +17.5 +12.3 72 +18 +18 тепло 1020.0 1008.2
ЮВ 1 50 км ясно +20.2 +13.0 63 +23 +25 комфорт 1020.3 1008.6 +16.5 +33.4
ЮВ 2-3
{3}
50 км ясно +24.6 +13.4 50 +27 +31 жарко 1020.1 1008.6
ЮВ 3-4
{5}
50 км ясно +27.7 +13.5 42 +30 +36 жарко 1019.9 1008.5
ЮВ 2 50 км 1/1 2000 м
[Cu hum]
+30.7 +13.8 36 +32 +42 жарко 1019.6 1008.3
ЮВ 2-3
{4}
50 км 1/1 2000 м
[Cu hum]
+33.3 +13.5 30 +34 +46 очень
жарко
1019.1 1007.9
ЮВ 3-5
{5}
50 км 1/1 2000 м
[Cu hum]
+34.0 +13.1 28 +34 +45 очень
жарко
1018.6 1007.5
С 2 50 км 1/1 2000 м
[Cu hum]
+34.6 +12.6 26 +35 +48 очень
жарко
1018.4 1007.3
Ю 2-5
{5}
50 км 1/1 2000 м
[Cu hum]
+34.2 +12.9 28 +35 +46 очень
жарко
1017.9 1006.8
ЮВ 1-4
{5}
50 км 1/1
[Cu hum]
+35.6 +11.6 23 +35 +46 очень
жарко
1017.5 1006.4
З 2 50 км 1/1
[Cu hum]
+36.4 +11.9 23 +36 +43 очень
жарко
1017.0 1006.0
В 2-6
{6}
50 км 1/1
[Cu hum Ci sp]
+36.5 +11.6 22 +36 +40 очень
жарко
1016.7 1005.7
СВ 3-4
{5}
50 км 1/1
[Cu hum Ci sp]
+35.7 +11.6 23 +35 +37 очень
жарко
1016.6 1005.5
С 3 50 км 1/1
[Cu hum Ci sp]
+34.4 +11.6 25 +34 +34 очень
жарко
1016.6 1005.5 +20.3 +37.3
СВ 3-5
{5}
55 км 4/0
[Ac As Ci fib]
+31.4 +12.6 32 +32 +32 жарко 1016.8 1005.6
С 3-4
{4}
55 км 3/0
[Ac As Ci fib]
+29.1 +13.8 39 +31 +31 жарко 1017.3 1006.0
СВ 4 55 км 1/0
[Ac trans]
+28.2 +12.4 38 +30 +30 жарко 1017.2 1005.9
СВ 3-4
{7}
55 км 3/0
[Ac trans]
+27.1 +12.0 39 +28 +28 жарко 1017.2 1005.8
ЮЗ 2-2
{4}
55 км 3/1 2000 м
[Cu hum Ac trans]
+23.7 +13.1 51 +26 +26 жарко 1017.6 1006.1
В 2 55 км 1/0
[Ac As]
+22.0 +13.3 58 +25 +25 комфорт 1017.5 1005.9
В 3-3
{3}
50 км 3/0
[Ac As]
+22.0 +13.2 57 +25 +25 комфорт 1017.3 1005.7
ЮВ 2-3
{3}
50 км 4/0
[Ac As]
+20.0 +13.5 66 +23 +23 комфорт 1017.3 1005.7
ЮВ 1 50 км 5/0
[Ac As]
+19.8 +13.6 67 +23 +23 комфорт 1017.6 1005.9
ЮВ 2 45 км 6/1 1500 м
[Cu hum Ac As Ci fib]
+19.1 +13.9 72 +21 +21 комфорт 1017.5 1005.8
В 3 45 км 8/3 1500 м
[Cu med, cong Ac cast Ci fib]
+20.5 +14.8 70 +24 +24 комфорт 1017.4 1005.8
ЮВ 1 40 км 8/3 1500 м
[Cu med, cong Ac cast Ci fib]
+23.0 +15.1 61 +27 +28 душно 1017.6 1006.1 +18.2 +34.4
ЮВ 2 45 км 6/3 1500 м
[Cu med, cong Ac trans Ci fib]
+25.3 +15.6 55 +28 +31 жарко 1017.5 1006.1
Ю 1 45 км 9/3 1500 м
[Cu med, cong Ac und Cc]
+27.8 +15.4 47 +31 +34 душно 1017.4 1006.1
Ю 1 40 км 9/3 1500 м
[Cu med, cong Ac trans Ci fib]
+30.6 +15.3 40 +33 +38 душно 1017.1 1005.9 0.0
СЗ 3 40 км 6/3 1500 м
[Cu med, cong Ac trans Ci fib]
+31.2 +13.7 34 +32 +38 жарко 1016.7 1005.5
З 3 45 км 5/3 1500 м
[Cb calv Ac trans Ci fib]
+33.5 +14.1 31 +35 +42 душно 1016.3 1005.2
З 4 45 км 3/1 1500 м
[Cb cap Ac trans]
+34.1 +13.6 29 +35 +42 очень
жарко
1016.0 1004.9
СЗ 2-6
{6}
45 км 3/1 1500 м
[Cb cap Ac trans]
+35.2 +13.5 27 +36 +46 очень
жарко
1015.5 1004.4
СЗ 7-11
{11}
45 км 4/1 1500 м
[Cb cap Ac trans Ci sp]
+34.2 +13.4 29 +35 +37 очень
жарко
1015.3 1004.2
СЗ 5 45 км 5/1 1500 м
[Cb cap Ac trans]
+33.6 +15.0 33 +35 +38 душно 1015.6 1004.5
В 8 45 км 8/1 1500 м
[Cb cap Ac trans]
+30.1 +14.8 39 +32 +33 жарко 1016.0 1004.8
В 8 45 км 5/1 1500 м
[Cb cap Ac trans Ci fib]
+28.7 +15.8 46 +32 +32 душно 1015.4 1004.1
З 3 12 км гроза без осадков 9/5 1000 м
[Cb cap Ac cast]
+27.5 +16.5 51 +31 +31 душно 1016.3 1005.0 +22.9 +36.2
З 2 20 км слаб. ливневой дождь, в посл. час гроза 9/4 1200 м
[Cb cap Ac As]
+24.3 +18.9 72 +29 +29 душно 1016.2 1004.8
З 4 30 км слаб. дождь 9/4 1200 м
[Cu med, cong Ac As]
+21.9 +19.1 84 +27 +27 душно 1016.2 1004.7
В 6 30 км слаб. дождь {гроза} 10/4 660 м
[Sc As op]
+20.9 +19.1 89 +25 +25 комфорт 1016.1 1004.5 2
В 3 28 км в посл. час дождь 9/3 1000 м
[Sc Ac As]
+20.6 +18.6 88 +25 +25 комфорт 1015.2 1003.6
Ю 2-3
{6}
28 км зарница 9/0
[Ac As]
+20.2 +18.6 91 +24 +24 комфорт 1016.1 1004.5
В 3 25 км {гроза, ливн. дождь} 9/0
[Ac As]
+20.6 +19.0 91 +25 +25 комфорт 1016.1 1004.5 3
В 2-3
{5}
35 км 9/0
[Ac As]
+21.5 +18.5 83 +26 +26 душно 1016.2 1004.7
В 4-5
{5}
35 км 6/0
[Ac As]
+22.3 +17.0 72 +27 +27 душно 1015.7 1004.2
В 3 35 км 4/0
[Ac trans Ci fib]
+21.9 +16.8 73 +26 +26 душно 1015.0 1003.5
ЮВ 2 35 км 8/0
[Ac As Ci fib]
+19.4 +17.2 87 +22 +22 комфорт 1015.1 1003.5
ЮЗ 1-2
{3}
25 км 6/0
[Ac cast Ci sp]
+18.8 +17.4 92 +21 +21 комфорт 1015.2 1003.6
Ю 1 25 км 4/0
[Ac cast Ci sp]
+20.1 +17.8 87 +24 +26 комфорт 1015.3 1003.7 +18.3 +27.7 3
ЮВ 3-4
{4}
23 км 3/0
[Ac trans Ci sp]
+22.4 +17.7 75 +27 +30 душно 1015.3 1003.8
ЮВ 2-4
{4}
23 км 3/0
[Ac trans Ci sp]
+26.4 +17.2 57 +30 +37 душно 1015.1 1003.7
ЮВ 3 25 км 1/0
[Ac trans Ci sp]
+28.1 +16.6 50 +32 +40 душно 1014.8 1003.5
В 3-7
{7}
25 км 1/1 1500 м
[Cu hum Ci sp]
+29.7 +16.3 44 +33 +42 душно 1014.4 1003.2
Ю 2 25 км 4/1 1500 м
[Cu hum Ac trans Ci sp]
+31.7 +16.9 41 +35 +46 очень
душно
1014.3 1003.1
Ю 3 45 км 5/1 1500 м
[Cu hum Ac lent Ci fib]
+32.1 +16.5 39 +35 +43 очень
душно
1013.9 1002.8
ЮВ 3-5
{7}
50 км 8/1 1500 м
[Cu hum Ci fib]
+32.2 +14.8 35 +34 +42 душно 1013.6 1002.5
Ю 2 50 км 8/1 2000 м
[Cu med, cong Ci fib]
+33.5 +14.9 33 +35 +43 душно 1013.3 1002.2
Ю 2 50 км 9/3 2000 м
[Cb calv Ci sp]
+32.5 +14.5 34 +34 +38 очень
жарко
1012.9 1001.8
Ю 3 50 км 9/1 2000 м
[Cu med, cong Ci sp]
+33.3 +14.8 33 +35 +38 душно 1012.4 1001.3
ЮВ 2 50 км 9/1 2000 м
[Cu med, cong Ci sp]
+32.1 +16.1 38 +35 +36 очень
душно
1012.2 1001.1
ЮВ 1 50 км 9/1 2000 м
[Cu hum Ci sp]
+29.9 +18.8 51 +35 +35 очень
душно
1012.7 1001.5 +20.2 +34.2
В 2 50 км 9/1 2000 м
[Cu hum Ci sp]
+28.5 +19.1 57 +34 +34 очень
душно
1013.2 1002.0
В 3 50 км 8/1 2000 м
[Cu hum Ci sp]
+27.5 +17.2 53 +31 +31 душно 1013.5 1002.2
В 3 50 км 5/0
[Ci sp]
+27.2 +15.9 50 +30 +30 душно 1014.0 1002.7
В 3-4
{4}
50 км 5/0
[Ci sp]
+25.8 +16.2 55 +29 +29 душно 1014.4 1003.0
ЮВ 3-4
{4}
50 км 1/0
[Ci fib]
+25.0 +16.2 58 +28 +28 жарко 1014.7 1003.3
ЮВ 1 50 км 5/0
[Ac trans]
+23.8 +16.1 62 +27 +27 жарко 1014.9 1003.4
Ю 2-2
{2}
50 км 1/0
[Ci fib]
+21.7 +16.0 70 +25 +25 комфорт 1014.7 1003.2
ЮВ 2-2
{3}
50 км 1/0
[Ci fib]
+22.3 +16.0 68 +26 +26 жарко 1014.6 1003.1
ЮВ 2 50 км 1/0
[Ci fib]
+19.6 +15.9 79 +22 +22 комфорт 1014.7 1003.1
Ю 2-2
{2}
40 км 1/0
[Ci fib]
+19.0 +15.6 81 +21 +21 комфорт 1014.7 1003.1
В 2-3
{3}
35 км 4/0
[Ci fib]
+19.8 +16.0 79 +23 +23 комфорт 1014.9 1003.3
В 2 35 км 3/0
[Ci fib]
+23.1 +16.3 66 +28 +29 душно 1015.0 1003.5 +18.5 +30.1
ЮВ 3-4
{5}
40 км 3/0
[Ac trans Ci fib]
+24.5 +16.3 60 +28 +31 душно 1015.2 1003.8
ЮВ 4-5
{6}
40 км 4/0
[Ac cast Ci sp]
+26.6 +16.8 55 +30 +34 душно 1015.4 1004.0
ЮВ 5 40 км 5/1
[Cu med, cong Ac trans Ci sp]
+28.3 +16.9 50 +32 +36 душно 1015.4 1004.1
В 5 40 км 6/1
[Cu med, cong Ac As Ci fib]
+30.3 +16.8 44 +34 +38 очень
душно
1015.0 1003.8
ЮВ 5 40 км осадки на расстоянии 8/3 1500 м
[Cu med, cong Ac cast Ci fib]
+31.4 +16.7 41 +35 +38 очень
душно
1014.9 1003.7
В 5 27 км гроза, ливневой дождь 9/3 1500 м
[Cb cap Ac As Ci sp]
+29.6 +15.1 41 +32 +35 душно 1014.8 1003.6 0.0
СВ 7 25 км гроза без осадков {ливн. дождь} 8/4 1500 м
[Cb cap Ac cuf Ci sp]
+29.5 +16.5 45 +33 +34 душно 1014.6 1003.4
В 8 25 км в посл. час гроза 8/3 1500 м
[Cb cap Ac trans Ci sp]
+31.5 +16.8 41 +35 +36 очень
душно
1013.9 1002.7
В 8 25 км осадки на расстоянии {гроза, ливн. дождь} 8/3 1500 м
[Cb cap Ac cuf Ci ing]
+32.2 +17.2 41 +36 +36 очень
душно
1013.4 1002.3 0.0
В 6 30 км 9/3 1500 м
[Cb cap Ac cuf Ci ing]
+31.1 +16.8 42 +34 +35 душно 1013.1 1001.9
В 4 22 км 9/1 1500 м
[Cb cap Ac As]
+30.5 +16.9 44 +34 +34 очень
душно
1013.0 1001.8
Ю 4 40 км зарница {гроза, ливн. дождь} 9/5 1500 м
[Cb cap Ac und]
+29.6 +17.2 47 +33 +33 душно 1013.9 1002.7 +23.1 +33.0
ЮВ 4 20 км ливневой дождь, в посл. час гроза 10/9 600 м
[Cb cap]
+22.9 +19.6 82 +29 +29 очень
душно
1015.2 1003.7
В 3-4
{6}
30 км слаб. ливневой дождь 9/6 1500 м
[Cb cap Ac und]
+21.8 +19.8 88 +27 +27 душно 1015.5 1004.0
ЮВ 4 50 км в посл. час ливневой дождь {гроза} 10/9 1500 м
[Cb calv]
+22.4 +16.9 71 +27 +27 душно 1015.8 1004.3 7
ЮВ 3-4
{6}
50 км в посл. час ливневой дождь 10/9 1500 м
[Sc]
+21.2 +17.5 79 +25 +25 комфорт 1015.8 1004.2
Ю 3-4
{4}
50 км зарница 9/0
[Ac und Ci sp]
+21.1 +18.3 84 +25 +25 комфорт 1016.0 1004.4
В 4 40 км зарница {гроза, ливн. дождь} 9/4 1500 м
[Sc Ac As Ci sp]
+21.9 +17.9 78 +27 +27 душно 1015.2 1003.7 7
ЮЗ 2 20 км слаб. дождь 9/9 1200 м
[Cb cap]
+20.4 +18.9 91 +25 +25 комфорт 1015.5 1003.9
В 4 20 км гроза, ливневой дождь 10/9 1260 м
[Cb cap]
+20.7 +18.8 89 +25 +25 комфорт 1015.7 1004.1
В 2 20 км слаб. ливневой дождь, в посл. час гроза 10/9 360 м
[Cb cap]
+20.1 +18.4 90 +24 +24 комфорт 1015.5 1003.9 1
Ю 2 30 км слаб. дождь 9/8 720 м
[Cu Sc Ac trans]
+19.9 +18.8 93 +24 +24 комфорт 1015.0 1003.4
В 8 18 км слаб. ливневой дождь 9/6 400 м
[Cb cap Ac cuf Ci ing]
+20.2 +17.8 86 +23 +23 комфорт 1015.1 1003.5
Ю 1 30 км в посл. час гроза {ливн. дождь} 8/6 1000 м
[Cb cap Ac cuf Ci ing]
+19.9 +18.2 90 +24 +24 комфорт 1016.1 1004.5 +19.3 +29.9 16
Ю 2 12 км ливневой дождь, в посл. час гроза 9/8 1000 м
[Cb cap Ac cuf Ci ing]
+19.9 +18.7 93 +24 +24 комфорт 1016.2 1004.6
ЮВ 5 45 км слаб. ливневой дождь 6/4 1050 м
[Cb calv Ac cuf]
+20.3 +18.5 89 +24 +25 комфорт 1015.5 1003.9
ЮВ 3 45 км в посл. час ливневой дождь {гроза} 4/0
[Ac cast]
+21.9 +18.9 83 +27 +33 душно 1015.6 1004.1 0.5
В 6-8
{8}
45 км 4/0
[Ac trans]
+24.5 +18.7 70 +29 +33 душно 1015.4 1004.0
ЮВ 6-9
{9}
45 км 1/0
[Ac lent]
+28.0 +19.3 59 +34 +39 очень
душно
1014.8 1003.5
В 6 45 км {гроза, ливн. дождь} 3/0
[Ac cast Ci sp]
+29.5 +18.8 53 +35 +39 очень
душно
1014.2 1003.0
ЮВ 6-8
{9}
45 км 4/1
[Cu med, cong Ac cast Ci fib]
+30.6 +18.1 47 +35 +39 очень
душно
1013.6 1002.4
В 4-7
{7}
45 км 4/1 1500 м
[Cb cap Ac trans]
+31.4 +18.2 45 +36 +41 очень
душно
1012.8 1001.7
В 3 45 км осадки на расстоянии 6/4 1500 м
[Cb cap Ac trans Ci ing]
+30.8 +19.0 49 +36 +39 очень
душно
1012.7 1001.5
СВ 3 35 км гроза без осадков 9/4 1500 м
[Cb cap Ac trans Ci ing]
+29.9 +20.0 55 +36 +37 очень
душно
1012.2 1001.0
Ю 16 1000 м сильн. гроза, ливневой дождь 10/10 600 м
[Cb cap]
+18.3 +17.7 96 +17 +17 холодно 1015.1 1003.4
ЮВ 5 15 км гроза, ливневой дождь 9/5 600 м
[Cb cap Ac As]
+19.8 +18.3 91 +22 +22 комфорт 1013.6 1002.0 +18.3 +31.9 44
ЮВ 5 23 км ливневой дождь, в посл. час гроза 9/4 1200 м
[Cb cap Ac cuf]
+19.4 +18.1 92 +21 +21 комфорт 1013.9 1002.3
В 6 23 км гроза, ливневой дождь 9/4 660 м
[Cb cap Ac cuf]
+19.5 +18.1 92 +21 +21 комфорт 1014.2 1002.6
Ю 4 30 км слаб. ливневой дождь, в посл. час гроза 10/4 800 м
[Cu Sc Ac cuf]
+19.6 +18.4 93 +22 +22 комфорт 1014.4 1002.8 4
В 3 30 км в посл. час дождь 9/3 700 м
[Cu Sc Ac As Ci sp]
+19.2 +18.3 95 +21 +21 комфорт 1013.1 1001.5
В 2 30 км 10/3 750 м
[Cu med, cong Ac As]
+19.3 +18.1 93 +22 +22 комфорт 1013.0 1001.4
СВ 3 30 км в посл. час ливневой дождь {гроза} 9/3 1000 м
[Cu med, cong Ac As Ci sp]
+19.1 +18.1 94 +21 +21 комфорт 1012.7 1001.1 4
В 3 30 км 9/1 1050 м
[Cu med, cong Ac As]
+19.6 +17.7 89 +22 +22 комфорт 1012.3 1000.7
В 2 30 км 9/1 1050 м
[Cu med, cong Ac As]
+19.6 +17.8 89 +23 +23 комфорт 1012.5 1000.9
ЮВ 2 35 км 9/1 1050 м
[Cu med, cong Ac As]
+19.6 +17.7 89 +23 +23 комфорт 1012.4 1000.8
ЮЗ 1 28 км зарница 8/0
[Ac cast Ci sp]
+18.4 +17.4 94 +20 +20 тепло 1012.7 1001.1
С 2 40 км 9/0
[Ac cast Ci fib]
+18.9 +17.8 93 +21 +21 комфорт 1012.6 1001.0
В 2 45 км осадки на расстоянии 9/1 600 м
[Cu med, cong Ac cast Ci sp]
+19.5 +17.9 90 +22 +23 комфорт 1012.7 1001.1 +18.3 +20.8 4
ЮВ 2 45 км 9/1 900 м
[Cu hum Ac cast]
+20.5 +17.9 85 +25 +26 комфорт 1012.3 1000.8
ЮВ 3 45 км 9/0
[Ac cast]
+21.4 +18.7 85 +26 +28 душно 1012.1 1000.6
ЮВ 4 45 км 9/0
[Ac cast Ci fib]
+22.9 +19.0 79 +29 +33 очень
душно
1012.2 1000.8
ЮВ 5 45 км 8/0
[Ac cast Ci fib]
+26.0 +18.9 65 +31 +35 очень
душно
1012.3 1001.0
ЮВ 5 45 км 8/1 1200 м
[Cu med, cong Ac cast Ci fib]
+28.2 +19.3 59 +34 +38 очень
душно
1012.0 1000.8
В 4 45 км 9/1 1200 м
[Cu med, cong Ac trans Ci sp]
+28.9 +19.4 57 +35 +39 очень
душно
1011.7 1000.5
В 4 45 км 9/1 1350 м
[Cu med, cong Ac trans Ci sp]
+30.4 +19.1 51 +36 +40 очень
душно
1011.5 1000.3
ЮВ 4 45 км 9/1 1350 м
[Cu med, cong Ci sp]
+31.0 +19.2 49 +36 +41 очень
душно
1011.1 1000.0
Ю 4 45 км гроза без осадков 9/3 1350 м
[Cb cap Ac trans Ci sp]
+30.7 +19.0 50 +36 +38 очень
душно
1011.0 999.9
ЮЗ 4 45 км гроза без осадков 9/3 1350 м
[Cb cap Ac trans Ci sp]
+30.5 +15.6 41 +33 +34 душно 1011.2 1000.0
Ю 5-7
{7}
45 км в посл. час гроза 4/1 1350 м
[Cb cap Ac trans Ci sp]
+30.4 +16.3 43 +34 +34 очень
душно
1010.7 999.5
ЮЗ 3 50 км {гроза} 5/0
[Ac As Ci ing]
+28.5 +18.2 54 +33 +33 очень
душно
1010.8 999.6 +19.5 +31.6
Ю 1 50 км 8/0
[Ac trans Ci ing]
+25.2 +18.7 67 +30 +30 душно 1011.4 1000.1
Местоположение метеостанции Кёльн (Германия): широта 50.87 долгота 7.17 высота над уровнем моря 91 м.
В архиве по умолчанию представлена погода в Кёльне за последнюю неделю. Архивные данные за месяц целиком и за предыдущие месяцы, начиная с января 2011 года, Вы можете получить, выбрав интересующий диапазон дат из раскрывающегося списка и нажав кнопку "Найти!".
*Определитесь, кто Вы:
Внимание! Время в таблицах - всемирное. Для получения местного времени необходимо прибавить поправку, которая равна 1 ч.
Смотрите также архив погоды в соседних городах и на ближайших метеорологических станциях:
Партнеры нашего сайта:      
Пояснения к столбцам:
  • Ветер - указаны скорость ветра в м/с - средняя за 10 мин, порывы в срок и между сроками (в фигурных скобках) и направление, откуда дует ветер: С - северный,
  • СВ - северо-восточный, В - восточный, ЮВ - юго-восточный, Ю - южный, ЮЗ - юго-западный, З - западный, СЗ - северо-западный.
  • Видимость - горизонтальная дальность видимости в метрах или километрах. При видимости от 1 до 10 км при отсутствии осадков обычно наблюдается дымка, при ухудшении видимости до 1 км и менее - туман. В сухую погоду видимость может ухудшаться дымом, пылью или мглою.
  • Явления - указаны атмосферные явления, наблюдавшиеся в срок или в последний час перед сроком; фигурными скобками обозначены явления, наблюдавшиеся между сроками (за 1-3 часа до срока); квадратными скобками обозначены град или гололедные отложения с указанием их диаметра в мм.
  • Облачность - указаны через наклонную черту общая и нижняя облачность в баллах и высота нижней границы облаков в метрах; квадратными скобками обозначены формы облаков: Ci - перистые, Cs - перисто-слоистые, Cc - перисто-кучевые, Ac - высококучевые, As - высокослоистые, Sc - слоисто-кучевые, Ns - слоисто-дождевые, Cu - кучевые, Cb - кучево-дождевые. Подробнее классификацию облаков см. в Атласе облаков (PDF).
  • T - Температура воздуха - температура, измеренная на высоте 2 м над землей.
  • Td - Температура точки росы - температура, при понижении до которой содержащийся в воздухе водяной пар достигнет насыщения.
  • f - Относительная влажность воздуха - влажноcть воздуха, измеренная на высоте 2 м над землей.
  • Te - Эффективная температура - температура, которую ощущает одетый по сезону человек в тени. Характеристика душности погоды. При расчете учитывается влияние влажности воздуха и скорости ветра на теплоощущения человека.
  • Tes - Эффективная температура на солнце - температура, которую ощущает человек, с поправкой на солнечный нагрев. Характеристика знойности погоды. Зависит от высоты солнца над горизонтом, облачности и скорости ветра. Ночью, в пасмурную погоду, а также при ветре 12 м/с и более поправка равна нулю.
  • P - Атмосферное давление - приведенное к уровню моря атмосферное давление.
  • Po - Атмосферное давление - измеренное на уровне метеостанции атмосферное давление.
  • Tmin - Минимальная температура - минимум температуры воздуха на высоте 2 м над землей.
  • Tmax - Максимальная температура - максимум температуры воздуха на высоте 2 м над землей.
  • R - Количество осадков - Количество выпавших осадков за период времени, мм. При наведении курсора мыши на число - период времени, за который выпало указанное количество осадков.
  • R24 - Количество осадков - Количество выпавших осадков за 24 часа, мм.
  • S - Снежный покров - Высота снежного покрова, см. При наведении курсора мыши на число - состояние снежного покрова и степень покрытия местности в баллах.